Weather History for Thomson, GA

Change the Weather History Date:

Friday, October 12, 2012

  Actual Average (KDBN) Record (KDBN)
Temperature  
Mean Temperature 65 °F -  
Max Temperature 81 °F 79 °F 91 °F (1954)
Min Temperature 49 °F 52 °F 38 °F (1979)
Growing Degree Days 15 (Base 50)    
Moisture  
Dew Point 57 °F    
Average Humidity 74    
Maximum Humidity 100    
Minimum Humidity 47    
Precipitation  
Precipitation 0.00 in - - ()
Sea Level Pressure  
Sea Level Pressure 30.24 in    
Wind  
Wind Speed 2 mph (NW)    
Max Wind Speed 12 mph    
Max Gust Speed 16 mph    
Visibility 10 miles    
Events      
Averages and records for this station are not official NWS values.
T = Trace of Precipitation, MM = Missing Value Source: NWS Daily Summary

Daily Weather History Graph

Daily Weather History Graph

Search for Another Location

Airport:

Trip Planner

Search our weather history database for the weather conditions in past years. The results will help you decide how hot, cold, wet, or windy it might be!

Date:

Astronomy

Oct. 12, 2012 Rise Set
Actual Time 7:32 AM EDT 6:59 PM EDT
Civil Twilight 7:07 AM EDT 7:24 PM EDT
Nautical Twilight 6:38 AM EDT 7:53 PM EDT
Astronomical Twilight 6:10 AM EDT 8:22 PM EDT
Moon 4:22 AM EDT (10/12) 5:02 PM EDT (10/12)
Length of Visible Light 12h 16m
Length of Day
11h 26m
Waning Crescent, 11% of the Moon is Illuminated
Oct 12
Waning Crescent
Oct 15
New
Oct 21
First Quarter
Oct 29
Full
Nov 6
Last Quarter

Hourly Weather History & Observations

Time (EDT) Temp. Heat Index Dew Point Humidity Pressure Visibility Wind Dir Wind Speed Gust Speed Precip Events Conditions
12:15 AM 51.8 °F - 51.8 °F 100% 30.28 in 10.0 mi Calm Calm - N/A   Clear
12:35 AM 51.8 °F - 51.8 °F 100% 30.28 in 10.0 mi Calm Calm - N/A   Clear
4:55 AM 50.0 °F - 50.0 °F 100% 30.25 in 10.0 mi Calm Calm - N/A   Overcast
5:15 AM 51.3 °F - 51.3 °F 100% 30.24 in 10.0 mi Calm Calm - N/A   Overcast
5:35 AM 52.0 °F - 52.0 °F 100% 30.24 in 10.0 mi Calm Calm - N/A   Overcast
6:15 AM 50.4 °F - 50.4 °F 100% 30.25 in 10.0 mi Calm Calm - N/A   Scattered Clouds
6:35 AM 50.4 °F - 50.4 °F 100% 30.24 in 10.0 mi Calm Calm - N/A   Clear
6:55 AM 50.2 °F - 50.2 °F 100% 30.25 in 10.0 mi Calm Calm - N/A   Clear
7:15 AM 50.0 °F - 50.0 °F 100% 30.26 in 10.0 mi Calm Calm - N/A   Clear
7:35 AM 50.0 °F - 50.0 °F 100% 30.26 in 10.0 mi Calm Calm - N/A   Clear
7:55 AM 49.5 °F - 49.5 °F 100% 30.26 in 7.0 mi Calm Calm - N/A   Clear
8:15 AM 50.9 °F - 50.9 °F 100% 30.26 in 10.0 mi Calm Calm - N/A   Clear
8:35 AM 54.3 °F - 54.0 °F 99% 30.26 in 10.0 mi Calm Calm - N/A   Clear
8:55 AM 56.8 °F - 54.5 °F 92% 30.26 in 10.0 mi Calm Calm - N/A   Clear
9:15 AM 60.4 °F - 53.2 °F 77% 30.27 in 10.0 mi WNW 3.5 mph - N/A   Clear
9:35 AM 63.1 °F - 53.6 °F 71% 30.28 in 10.0 mi WNW 4.6 mph - N/A   Clear
10:15 AM 68.5 °F - 54.0 °F 60% 30.29 in 10.0 mi WNW 8.1 mph - N/A   Clear
10:35 AM 70.5 °F - 54.3 °F 56% 30.28 in 10.0 mi West 5.8 mph - N/A   Clear
10:55 AM 71.6 °F - 55.2 °F 56% 30.28 in 10.0 mi NNW 5.8 mph - N/A   Clear
11:15 AM 72.0 °F - 56.8 °F 59% 30.27 in 10.0 mi NW 3.5 mph - N/A   Clear
11:35 AM 73.4 °F - 58.6 °F 60% 30.27 in 10.0 mi WNW 5.8 mph - N/A   Clear
11:55 AM 74.5 °F - 60.1 °F 61% 30.26 in 10.0 mi West 3.5 mph - N/A   Clear
12:15 PM 75.7 °F - 60.1 °F 58% 30.24 in 10.0 mi Calm Calm - N/A   Clear
12:35 PM 76.1 °F - 60.4 °F 58% 30.24 in 10.0 mi Calm Calm - N/A   Clear
1:15 PM 78.4 °F - 61.5 °F 56% 30.23 in 10.0 mi NNW 6.9 mph - N/A   Clear
1:35 PM 79.5 °F - 62.1 °F 55% 30.22 in 10.0 mi WSW 3.5 mph - N/A   Scattered Clouds
1:55 PM 78.8 °F - 61.5 °F 55% 30.21 in 10.0 mi Calm Calm - N/A   Scattered Clouds
2:35 PM 79.3 °F - 61.5 °F 54% 30.21 in 10.0 mi North 5.8 mph - N/A   Scattered Clouds
3:35 PM 81.9 °F 82.5 °F 60.8 °F 49% 30.19 in 10.0 mi NNW 9.2 mph - N/A   Clear
3:55 PM 81.3 °F 81.9 °F 60.4 °F 49% 30.19 in 10.0 mi West 6.9 mph - N/A   Clear
4:35 PM 81.7 °F 82.0 °F 59.9 °F 47% 30.19 in 10.0 mi NNW 9.2 mph - N/A   Scattered Clouds
4:55 PM 81.7 °F 82.2 °F 60.1 °F 48% 30.19 in 10.0 mi NNW 8.1 mph - N/A   Scattered Clouds
5:15 PM 80.2 °F 80.9 °F 59.5 °F 49% 30.20 in 10.0 mi NW 11.5 mph 16.1 mph N/A   Scattered Clouds
5:35 PM 79.5 °F - 59.5 °F 50% 30.21 in 10.0 mi WNW 10.4 mph - N/A   Clear
6:15 PM 78.8 °F - 60.8 °F 54% 30.21 in 10.0 mi NNW 5.8 mph - N/A   Clear
6:35 PM 77.0 °F - 60.3 °F 56% 30.22 in 10.0 mi NNW 6.9 mph - N/A   Clear
7:15 PM 72.1 °F - 60.3 °F 66% 30.24 in 10.0 mi NNW 3.5 mph - N/A   Clear
7:35 PM 69.8 °F - 61.2 °F 74% 30.24 in 10.0 mi North 3.5 mph - N/A   Clear
7:55 PM 67.6 °F - 61.0 °F 79% 30.24 in 10.0 mi North 4.6 mph - N/A   Clear
8:15 PM 65.8 °F - 60.8 °F 84% 30.24 in 10.0 mi North 3.5 mph - N/A   Clear
8:55 PM 64.4 °F - 60.4 °F 87% 30.26 in 10.0 mi Calm Calm - N/A   Clear
9:15 PM 64.0 °F - 60.6 °F 89% 30.27 in 10.0 mi Calm Calm - N/A   Clear
9:35 PM 62.4 °F - 60.1 °F 92% 30.28 in 10.0 mi Calm Calm - N/A   Clear